Location: Escalona
(40.1669°N, 4.4048°W)
Time: 23:29:16
(UTC+00:00)

Cosmos 2322 Rocket - Visible Passes

Search period start: 15 February 2026 00:00
Search period end: 25 February 2026 00:00
Orbit: 832 x 849 km, 71.0° (Epoch: 14 February)

Date Brightness Start Highest point End Pass type
(mag) Time Alt. Az. Time Alt. Az. Time Alt. Az.
15 Feb 4.7 05:39:29 10° SSE 05:43:52 23° E 05:48:15 10° NE visible
16 Feb 4.7 05:24:16 10° SSE 05:28:30 22° E 05:32:44 10° NE visible
17 Feb 4.8 05:09:03 10° SSE 05:13:08 21° E 05:17:12 10° NE visible
18 Feb 4.8 04:53:51 10° SE 04:57:46 19° E 05:01:40 10° NE visible
18 Feb 2.3 06:35:42 10° SW 06:41:16 57° WNW 06:46:51 10° NNE visible
19 Feb 4.8 04:38:41 10° SE 04:42:24 18° E 04:46:07 10° ENE visible
19 Feb 2.2 06:20:16 10° SW 06:25:51 60° WNW 06:31:28 10° NNE visible
20 Feb 4.8 04:23:31 10° SE 04:27:02 17° E 04:30:32 10° ENE visible
20 Feb 2.2 06:04:49 10° SW 06:10:26 64° WNW 06:16:04 10° NNE visible
21 Feb 4.8 04:08:23 10° SE 04:11:40 16° E 04:14:57 10° ENE visible
21 Feb 2.1 05:49:23 10° SSW 05:55:02 68° WNW 06:00:41 10° NNE visible
22 Feb 4.9 03:53:17 10° SE 03:56:18 15° E 03:59:19 10° ENE visible
22 Feb 2.1 05:33:58 10° SSW 05:39:37 72° WNW 05:45:17 10° NNE visible
23 Feb 4.9 03:38:13 10° SE 03:40:56 14° E 03:43:40 10° ENE visible
23 Feb 2.1 05:19:32 16° SSW 05:24:12 76° WNW 05:29:53 10° NNE visible
24 Feb 4.8 03:23:58 11° ESE 03:25:35 13° E 03:27:58 10° ENE visible
24 Feb 2.1 05:05:50 30° SSW 05:08:48 81° WNW 05:14:28 10° NNE visible
